Location: Riverton
(43.0250°N, 108.3790°W)
Time: 09:41:19
(UTC-07:00)

JAS-2 - Visible Passes

Search period start: 21 December 2014 00:00
Search period end: 31 December 2014 00:00
Orbit: 800 x 1322 km, 98.5° (Epoch: 19 December)

Date Brightness Start Highest point End Pass type
(mag) Time Alt. Az. Time Alt. Az. Time Alt. Az.
21 Dec 11.6 04:18:30 10° NE 04:22:28 20° E 04:26:15 10° SE visible
21 Dec 9.3 06:02:34 10° N 06:08:05 52° WNW 06:13:09 10° SW visible
21 Dec 12.4 18:00:13 10° SW 18:05:54 23° W 18:11:17 10° NW visible
22 Dec 9.8 05:07:32 10° NNE 05:13:02 54° E 05:18:07 10° S visible
22 Dec 10.3 06:53:34 10° NNW 06:57:40 21° WNW 07:01:32 10° WSW visible
22 Dec 10.9 17:03:12 10° S 17:10:36 54° W 17:17:21 10° NNW visible
23 Dec 11.7 04:13:48 10° NE 04:17:27 18° E 04:20:57 10° SE visible
23 Dec 9.2 05:57:39 10° N 06:03:07 56° WNW 06:08:12 10° SSW visible
23 Dec 12.3 17:55:14 10° SW 18:01:02 24° W 18:06:28 10° NW visible
24 Dec 10.0 05:02:41 10° NNE 05:08:02 49° E 05:13:03 10° S visible
24 Dec 10.3 06:48:36 10° NNW 06:52:45 22° WNW 06:56:43 10° WSW visible
25 Dec 11.8 04:09:08 10° NE 04:12:26 16° E 04:15:37 10° SE visible
25 Dec 9.1 05:52:44 10° N 05:58:10 61° WNW 06:03:15 10° SSW visible
25 Dec 12.2 17:50:17 10° SW 17:56:09 25° W 18:01:37 10° NW visible
26 Dec 10.1 04:57:49 10° NNE 05:03:02 45° E 05:07:58 10° S visible
26 Dec 10.2 06:43:36 10° N 06:47:50 23° WNW 06:51:53 10° WSW visible
27 Dec 11.9 04:04:29 10° NE 04:07:24 15° E 04:10:15 10° ESE visible
27 Dec 9.0 05:47:48 10° N 05:53:11 66° WNW 05:58:17 10° SSW visible
27 Dec 12.1 17:45:20 10° SSW 17:51:16 26° W 17:56:45 10° NW visible
28 Dec 10.3 04:52:57 10° NNE 04:58:01 41° E 05:02:53 10° SSE visible
28 Dec 10.1 06:38:36 10° N 06:42:55 25° WNW 06:47:04 10° WSW visible
29 Dec 11.9 03:59:54 10° ENE 04:02:23 13° E 04:04:49 10° ESE visible
29 Dec 9.0 05:42:52 10° N 05:48:13 71° WNW 05:53:20 10° SSW visible
29 Dec 12.0 17:40:24 10° SSW 17:46:23 28° W 17:51:53 10° NW visible
30 Dec 10.4 04:48:05 10° NNE 04:53:01 38° E 04:57:48 10° SSE visible
30 Dec 10.0 06:33:36 10° N 06:37:59 27° WNW 06:42:14 10° WSW visible
30 Dec 12.9 18:36:19 10° W 18:37:04 10° W 18:37:49 10° W visible
